Regional Weather Roundup
Issued by NWS Wakefield, VA

Home | Current Version | Previous Version | Graphics & Text | Print | Product List | Glossary On
Versions: 1 2 3 4 5 6 7 8 9 10 11 12 13 14 15 16 17 18 19 20 21 22 23 24 25 26 27 28 29 30 31 32 33 34 35 36 37 38 39 40 41 42 43 44 45 46 47 48 49 50
000
ASUS41 KAKQ 020415
RWRAKQ

REGIONAL WEATHER ROUNDUP
NATIONAL WEATHER SERVICE WAKEFIELD VA
1200 AM EDT TUE JUN 02 2015

Note: "fair" indicates few or no clouds below 12,000 feet with no
significant weather and/or obstructions to visibility. * = Denotes
station may not report precipitation (e.g., rain,snow,etc.),
thunder or fog.

VAZ042-051-052>054-056-020500-
NORTHERN VIRGINIA

CITY           SKY/WX    TMP DP  RH WIND       PRES   REMARKS
WASH NATIONAL  LGT RAIN  72  68  87 E8        30.03S
DULLES         CLOUDY    70  66  87 NE3       30.03R
FORT BELVOIR   RAIN      70  68  94 VRB2      30.01S
QUANTICO       LGT RAIN  71  68  90 SE8       30.02S
FREDERICKSBRG* HVY RAIN  72  72 100 SW9       30.03R
STAFFORD*      HVY RAIN  68  67  95 SW6       30.07R
WARRENTON      RAIN      67  67 100 S5        30.04R
CULPEPER*      CLOUDY    66  65  97 CALM      30.05R THUNDER
MANASSAS*      CLOUDY    70  70 100 CALM      30.02S
LEESBURG*      CLOUDY    70  70 100 NE3       30.04R
WINCHESTER     CLOUDY    64  63  94 CALM      30.06R
FRONT ROYAL*   CLOUDY    64  63  94 N3        30.05R
LURAY*         LGT RAIN  68  68 100 N7        30.04F
$$

VAZ048-049-060>072-079>083-020500-
CENTRAL AND SOUTH CENTRAL VIRGINIA

CITY           SKY/WX    TMP DP  RH WIND       PRES   REMARKS
RICHMOND       CLOUDY    70  67  90 CALM      30.01F
CHESTERFIELD*  NOT AVBL
PETERSBURG*    LGT RAIN  70  70 100 SE5       30.03S
HANOVER        LGT RAIN  69  67  93 N6        30.05R
TAPPAHANNOCK*  CLOUDY    69  65  88 CALM      30.06R
QUINTON*       MOCLDY    68  67  97 E7        30.02F
CHARLOTTSVILLE LGT RAIN  65  64  97 N3        30.02S
GORDONSVILLE*  MOCLDY    64  64 100 NE8       30.01F
ORANGE*        RAIN      66  64  94 CALM      30.04F
LOUISA*        CLOUDY    68  66  94 NE3       30.01F
BUMPASS*       CLOUDY    67  67  98 CALM      30.04F
FARMVILLE*     CLOUDY    69  69 100 CALM      30.00F
CREWE*         FAIR      67  66  96 CALM      30.01F
FORT PICKETT*  FAIR      68  66  94 N3        30.01F
CHASE CITY*    MOCLDY    70  70 100 CALM      30.02S
CLARKSVILLE*   FAIR      68  68 100 CALM      30.01F
SOUTH HILL*    CLOUDY    68  67  97 CALM      30.09R
LAWRENCEVILLE* MOCLDY    68  68 100 CALM      30.04S
EMPORIA*       CLOUDY    68  68 100 CALM      30.05S
$$

VAZ088>098-020500-
SOUTHEAST VIRGINIA

CITY           SKY/WX    TMP DP  RH WIND       PRES   REMARKS
NORFOLK        MOCLDY    77  65  66 VRB6      30.05R
VIRGINIA BEACH MOCLDY    77  67  71 S9        30.03S
NORFOLK NAVAL  CLOUDY    79  66  64 N9        30.06R
WEST POINT*    CLOUDY    71  68  90 CALM      30.05F
SALUDA*        CLOUDY    67  66  95 CALM      30.05S
NEWPORT NEWS   CLOUDY    74  67  78 NW6       30.05F
LANGLEY AFB    CLOUDY    72  66  83 W10       30.04F
FORT EUSTIS    DRIZZLE   70  70 100 VRB2      30.03F
WILLIAMSBURG*  CLOUDY    72  70  94 CALM      30.05F
HR EXEC AP*    MOCLDY    75  66  73 S5        30.06R
FRANKLIN*      CLOUDY    72  67  84 CALM      30.04F
WAKEFIELD      CLOUDY    70  68  93 CALM      30.04F
$$

VAZ020-022-025-037-045-020500-
WEST CENTRAL AND SOUTHWEST VIRGINIA

CITY           SKY/WX    TMP DP  RH WIND       PRES   REMARKS
STAUNTON*      CLOUDY    69  66  92 CALM      30.05F
WAYNESBORO*    CLOUDY    65  64  99 CALM      30.04F
HOT SPRINGS VA CLOUDY    62  62 100 CALM      30.12S
LYNCHBURG      MOCLDY    64  64 100 S3        30.03F FOG
DANVILLE       CLOUDY    69  67  93 CALM      30.02F
SOUTH BOSTON*  FAIR      67  66  95 CALM      30.02S
MARTINSVILLE   MOCLDY    65  65 100 CALM      30.06F
ROANOKE        CLOUDY    66  66 100 CALM      30.04F
BLACKSBURG     CLOUDY    64  62  94 W3        30.11R
DUBLIN*        CLOUDY    64  64 100 CALM      30.09F
MARION*        CLOUDY    62  61  95 CALM      30.13S FOG
HILLSVILLE*    NOT AVBL
RICHLANDS*     CLOUDY    62  62 100 CALM      30.11S
WISE*          CLOUDY    63  63 100 CALM      30.12S
ABINGDON*      CLOUDY    64  63  99 CALM      30.09S
$$

MDZ021>025-VAZ099-100-020500-
SOUTHERN MARYLAND AND THE DELMARVA PENINSULA

CITY           SKY/WX    TMP DP  RH WIND       PRES   REMARKS
PATUXENT RIVER TSTM      68  68 100 CALM      30.03F FOG
BAY BRIDGE APT RAIN     N/A N/A N/A E6        30.02F
LEONARDTOWN    CLOUDY    68  64  88 CALM      30.05S
DOVER          CLOUDY    66  66 100 N10       30.02R
GEORGETOWN     RAIN      70  69  97 CALM      30.05R
EASTON         RAIN      69  69 100 SE6       30.08R
CAMBRIDGE      CLOUDY    70  64  83 N7G21     30.04R
SALISBURY      TSTM      70  68  93 W14       30.07R FOG
OCEAN CITY     CLOUDY    72  68  87 S5        30.04R
WALLOPS ISLAND CLOUDY    72  68  87 W13G28    30.06R
ACCOMACK*      CLOUDY    72  68  88 W9        30.06R
$$

NCZ012>017-030>032-020500-
NORTH CENTRAL AND EASTERN NORTH CAROLINA

CITY           SKY/WX    TMP DP  RH WIND       PRES   REMARKS
ROANOKE RAPIDS FAIR      70  68  94 CALM      30.03S
RALEIGH        CLOUDY    69  67  93 CALM      30.04S
ELIZABETH CITY PTCLDY    74  68  81 S8        30.05F
AHOSKIE*       MOCLDY    73  65  76 CALM      30.03F
EDENTON*       PTCLDY    74  68  82 S8        30.05S
CURRITUCK*     PTCLDY    75  66  72 CALM      30.05F
KILL DEVIL HLS PTCLDY    75  69  81 SW6       30.05S
MANTEO         PTCLDY    75  69  82 SW9       30.07R
CAPE HATTERAS  CLEAR     76  68  76 SW9       30.07R
TARBORO*       FAIR      75  67  76 S3        30.04S
GOLDSBORO      PTCLDY    74  68  83 CALM      30.02F
WASHINGTON     CLEAR     73  67  83 S5        30.06S
GREENVILLE     CLEAR     73  70  88 S7        30.06S
NEW BERN       CLEAR     69  66  90 CALM      30.07R
WILMINGTON     PTCLDY    73  69  87 CALM      30.06S
$$

VAZ048-020500-
ELSEWHERE

CITY           SKY/WX    TMP DP  RH WIND       PRES   REMARKS
HARRISBURG PA  CLOUDY    60  57  89 NE8       30.06S
BALTIMORE      RAIN      68  66  93 E8        30.03R FOG
ANNAPOLIS      HVY RAIN  70  67  90 E8        30.02S FOG
ANDREWS AFB    HVY RAIN  68  68 100 E13       30.02F FOG
PHILADELPHIA   LGT RAIN  59  55  87 NE12      30.08F
HENDERSON NC   CLOUDY    68  65  91 CALM      30.03F
GREENSBORO     CLOUDY    69  67  93 W6        30.04S
ROCKY MOUNT    PTCLDY    71  70  96 CALM      30.03F FOG
$$

VAZ100-020500-
MARINE

STATION/POSITION TIME  TEMP    WIND        PRES    WAVE   SWELL
                       AIR SEA DIR/SP/G            HT/PER HT/PER
                 (UTC) (F)     (DEG/KT/KT) (MB)    (FT/S) (FT/S)
BRANDYWINE LGT   0300   68 63   60/  2/  2 1017.2F
CAPE MAY NJ      0300   68 68  130/  2/  3 1017.2S
LEWES DE         0300   68 63  120/  3/  4 1017.1F
15NM E FENWICK I 0350   68 66              1017.2F   3/ 9
OCEAN-CITY-INLET 0300   67 57  190/  8/ 12 1016.7F
WACHAPREAGUE VA  0300   74 78  210/ 16/ 21 1016.5R
THOMAS POINT MD  0400   69 73  100/ 11/ 14 1017.3R
GOOSES REEF MD   0400   69 72  130/  6/ 12 1017.6F   2/ 3
COVE POINT MD    0300   69      10/  8/ 11 1017.6R
SOLOMONS ISLAND  0300      74                N/A
BISHOPS HEAD MD  0300   70 77  290/ 26/ 30 1017.0R
PINEY POINT MD   0300          330/  3/  4   N/A
CAMBRIDGE MD     0300   71 76   40/ 10/ 12 1015.9F
LEWISETTA VA     0300   69 75              1017.0R
RAPPAHANNOCK LGT 0300          270/ 19/ 22 1018.2R
STINGRAY PT      0400   69 73  270/  8/ 10 1017.5R   1/ 3
YORK RVR RNG VA  0300   72     290/ 16/ 19 1017.0R
YORKTOWN VA      0300   70 76  280/ 10/ 13 1018.0R
JAMESTOWN VA     0400   70 81  190/  2/  4   N/A
DOMINION TERM VA 0300   78     200/ 14/ 16 1017.1R
KIPTOPEKE VA     0300      78  180/ 11/ 12   N/A
CHES BAY BRIDGE  0300   76 64  180/ 14/ 19 1016.5R
CAPE HENRY VA    0300   76     190/ 12/ 15 1015.8R
CHESAPEAKE LGHT  0300   71     190/ 21/ 22 1017.6R
WILLOUBY STN VA  0300   78     190/ 18/ 20 1017.6R
CAPE HENRY BUOY  0328      65                N/A     3/ 9
1ST LANDING BUOY 0400      68              1017.2R
CAPE CHARLES BUO 0326      67                N/A     3/ 9   2/ 9
OFFSHORE WE BUOY 0311      67                N/A     3/ 9   2/ 9
64NM E OF VA BCH 0350   74 72  210/  8/ 10 1017.5R   3/ 9   3/ 9
DUCK PIER NC     0300   76 58  210/  9/ 14 1016.7R
44100 DUCK FRF   0324      74                N/A     3/ 9
44056 DUCK FRF   0311      64                N/A     3/ 8
OREGON INLET NC  0300   76 80  180/ 13/ 16 1017.8R
HATTERAS NC      0300   77 81  190/  5/  9 1017.6F
DIAMOND SHLS NC  0350   77 78  190/ 14/ 16 1018.1S   4/ 8   3/ 8
CAPE LOOKOUT NC  0400   76     200/  7/  8 1017.9S
$$



USA.gov is the U.S. government's official web portal to all federal, state and local government web resources and services.